contact:dominique.lefevre@mio.osupytheas.fr, maurice.libes@osupytheas.fr
Project:EMSO Ligure-ouest http://www.emso-fr.org/EMSO-France
Sensor Aquadopp, line 13 Serial AQD14315 
DOI : "https://doi.org/10.17882/74513; https://doi.org/10.17882/83244" 
Title:EMSO Ligure Ouest : Data ligne ALBATROSS capteur AQUADOPP - deploiement 2021
Id,Date,Profondeur,Latitude,Longitude,X_East,Y_North,Z_Up,Amplitude_X,Amplitude_Y,Amplitude_Z,Batterie,SoundSpeed,Heading,Pitch,Roll,Pressure,Temperature,Speed,Direction
, , m, degrees North, degrees East, m.s-1, m.s-1,m.s-1, 1, 1, 1, Volt, m.s-1, degree, degree, degree, dbar, degree_C, m.s-1, degree
09,2022-02-08T21:30:00,2000.0,42.79,6.0312,0.05,-0.002,-0.013,67.0,64.0,67.0,12.2,1504.7,168.9,-0.7,0.9,1990.58,13.28,0.05,92.3
09,2022-02-08T22:00:00,2000.0,42.79,6.0312,0.03,-0.009,0.003,70.0,64.0,68.0,12.2,1504.7,159.0,-0.9,0.9,1990.553,13.28,0.031,106.7
09,2022-02-08T22:30:00,2000.0,42.79,6.0312,0.053,-0.021,-0.001,66.0,63.0,67.0,12.2,1504.7,152.7,-0.8,0.9,1990.595,13.28,0.057,111.6
09,2022-02-08T23:00:00,2000.0,42.79,6.0312,0.037,-0.017,-0.008,66.0,63.0,67.0,12.2,1504.7,153.1,-0.9,0.9,1990.618,13.28,0.04,114.7
09,2022-02-09T00:00:00,2000.0,42.79,6.0312,0.025,-0.032,0.014,68.0,63.0,67.0,12.2,1504.7,152.1,-0.8,1.0,1990.617,13.28,0.04,142.0
09,2022-02-09T00:30:00,2000.0,42.79,6.0312,0.025,-0.026,0.005,68.0,65.0,68.0,12.2,1504.7,152.0,-0.9,1.0,1990.615,13.28,0.036,136.1
09,2022-02-09T01:00:00,2000.0,42.79,6.0312,0.003,-0.026,0.003,67.0,63.0,65.0,12.2,1504.7,156.3,-0.9,0.8,1990.629,13.28,0.026,173.4
09,2022-02-09T01:30:00,2000.0,42.79,6.0312,0.018,-0.052,-0.016,69.0,64.0,66.0,12.2,1504.7,159.8,-0.8,0.9,1990.624,13.28,0.055,160.9
09,2022-02-09T02:00:00,2000.0,42.79,6.0312,0.037,-0.048,-0.003,65.0,66.0,66.0,12.2,1504.7,165.3,-0.8,0.8,1990.578,13.28,0.06,142.4
09,2022-02-09T02:30:00,2000.0,42.79,6.0312,-0.001,-0.048,0.007,68.0,63.0,65.0,12.2,1504.7,170.1,-0.7,0.8,1990.667,13.28,0.048,181.2
09,2022-02-09T03:00:00,2000.0,42.79,6.0312,0.01,-0.033,-0.004,67.0,64.0,64.0,12.2,1504.6,169.6,-0.8,0.9,1990.595,13.27,0.034,163.1
09,2022-02-09T03:30:00,2000.0,42.79,6.0312,0.02,-0.036,-0.023,67.0,62.0,66.0,12.2,1504.6,167.1,-0.8,0.9,1990.609,13.27,0.041,150.9
09,2022-02-09T04:00:00,2000.0,42.79,6.0312,-0.008,-0.044,0.009,65.0,64.0,65.0,12.2,1504.6,171.8,-0.7,0.9,1990.595,13.27,0.044,190.3
09,2022-02-09T04:30:00,2000.0,42.79,6.0312,-0.011,-0.048,0.006,65.0,64.0,64.0,12.2,1504.6,165.3,-0.8,0.9,1990.599,13.27,0.049,192.9
09,2022-02-09T05:00:00,2000.0,42.79,6.0312,0.001,-0.043,0.004,65.0,64.0,67.0,12.2,1504.6,158.0,-0.8,1.0,1990.607,13.27,0.043,178.7
09,2022-02-09T05:30:00,2000.0,42.79,6.0312,-0.006,-0.054,-0.021,66.0,62.0,65.0,12.2,1504.6,175.8,-0.9,1.0,1990.578,13.27,0.054,186.3
09,2022-02-09T06:00:00,2000.0,42.79,6.0312,-0.014,-0.046,0.0,68.0,64.0,71.0,12.2,1504.6,171.0,-0.9,0.9,1990.559,13.27,0.048,196.9
09,2022-02-09T06:30:00,2000.0,42.79,6.0312,0.018,-0.041,-0.003,69.0,65.0,66.0,12.2,1504.6,158.2,-0.9,0.8,1990.585,13.27,0.044,156.3
09,2022-02-09T07:00:00,2000.0,42.79,6.0312,0.0,-0.04,-0.002,70.0,64.0,67.0,12.2,1504.6,160.4,-0.6,1.0,1990.586,13.27,0.04,180.0
09,2022-02-09T07:30:00,2000.0,42.79,6.0312,0.012,-0.036,-0.009,69.0,65.0,69.0,12.2,1504.6,156.9,-0.9,0.9,1990.587,13.27,0.037,161.6
09,2022-02-09T08:00:00,2000.0,42.79,6.0312,0.014,-0.022,-0.004,70.0,65.0,69.0,12.2,1504.6,150.1,-0.6,0.9,1990.576,13.27,0.026,147.5
09,2022-02-09T08:30:00,2000.0,42.79,6.0312,-0.004,-0.029,-0.035,69.0,69.0,67.0,12.2,1504.6,168.9,-0.8,0.9,1990.565,13.27,0.029,187.8
09,2022-02-09T09:00:00,2000.0,42.79,6.0312,-0.01,-0.017,0.009,68.0,67.0,68.0,12.2,1504.6,164.1,-0.8,0.9,1990.575,13.27,0.019,210.5
09,2022-02-09T09:30:00,2000.0,42.79,6.0312,0.017,-0.039,-0.013,67.0,67.0,67.0,12.2,1504.6,165.3,-0.8,0.9,1990.579,13.27,0.042,156.5
09,2022-02-09T10:00:00,2000.0,42.79,6.0312,0.023,-0.021,-0.016,69.0,66.0,67.0,12.2,1504.6,163.6,-0.8,0.9,1990.604,13.27,0.031,132.4
09,2022-02-09T10:30:00,2000.0,42.79,6.0312,0.029,-0.012,-0.016,64.0,59.0,65.0,12.2,1504.6,163.6,-0.7,1.0,1990.585,13.27,0.031,112.5
09,2022-02-09T11:00:00,2000.0,42.79,6.0312,0.042,0.003,-0.012,64.0,62.0,64.0,12.2,1504.6,157.5,-0.8,0.9,1990.59,13.27,0.042,85.9
09,2022-02-09T11:30:00,2000.0,42.79,6.0312,0.009,-0.012,-0.012,68.0,61.0,68.0,12.2,1504.6,165.7,-0.6,1.0,1990.599,13.27,0.015,143.1
09,2022-02-09T12:00:00,2000.0,42.79,6.0312,0.027,-0.015,-0.005,67.0,64.0,64.0,12.2,1504.6,157.1,-1.1,1.0,1990.61,13.27,0.03,119.1
09,2022-02-09T13:00:00,2000.0,42.79,6.0312,0.043,-0.028,-0.01,70.0,64.0,69.0,12.2,1504.6,152.1,-0.7,0.9,1990.63,13.27,0.051,123.1
09,2022-02-09T13:30:00,2000.0,42.79,6.0312,0.036,-0.011,-0.017,69.0,64.0,68.0,12.2,1504.6,144.9,-1.2,1.0,1990.639,13.27,0.037,107.0
09,2022-02-09T14:00:00,2000.0,42.79,6.0312,0.067,-0.007,-0.008,67.0,64.0,66.0,12.2,1504.6,141.1,-1.0,0.9,1990.613,13.27,0.067,96.0
09,2022-02-09T14:30:00,2000.0,42.79,6.0312,0.058,-0.012,-0.004,66.0,63.0,67.0,12.2,1504.6,139.8,-0.6,0.8,1990.569,13.27,0.059,101.7
09,2022-02-09T15:00:00,2000.0,42.79,6.0312,0.049,-0.012,0.025,66.0,64.0,67.0,12.2,1504.6,128.7,-1.0,1.0,1990.605,13.27,0.05,103.8
09,2022-02-09T15:30:00,2000.0,42.79,6.0312,0.042,-0.016,-0.007,69.0,63.0,67.0,12.2,1504.6,127.9,-0.9,1.1,1990.573,13.27,0.044,110.9
09,2022-02-09T16:00:00,2000.0,42.79,6.0312,0.074,-0.002,-0.007,66.0,65.0,65.0,12.2,1504.6,120.4,-0.9,1.0,1990.603,13.27,0.074,91.5
09,2022-02-09T16:30:00,2000.0,42.79,6.0312,0.026,-0.041,-0.029,65.0,62.0,66.0,12.2,1504.6,125.9,-1.0,1.0,1990.548,13.27,0.048,147.6
09,2022-02-09T17:00:00,2000.0,42.79,6.0312,0.039,-0.025,0.0,66.0,62.0,65.0,12.2,1504.6,129.8,-0.8,0.9,1990.625,13.27,0.046,122.7
09,2022-02-09T17:30:00,2000.0,42.79,6.0312,0.045,-0.033,0.011,68.0,61.0,66.0,12.2,1504.6,122.8,-1.0,1.0,1990.589,13.27,0.055,126.3
09,2022-02-09T18:00:00,2000.0,42.79,6.0312,0.049,-0.041,0.007,68.0,62.0,67.0,12.2,1504.6,123.9,-0.8,0.9,1990.563,13.27,0.063,129.9
09,2022-02-09T18:30:00,2000.0,42.79,6.0312,0.053,-0.063,0.001,66.0,65.0,66.0,12.2,1504.6,133.0,-0.9,1.0,1990.546,13.27,0.082,139.9
09,2022-02-09T19:00:00,2000.0,42.79,6.0312,0.042,-0.024,0.001,66.0,63.0,66.0,12.2,1504.6,119.3,-1.1,1.0,1990.528,13.27,0.048,119.7
09,2022-02-09T19:30:00,2000.0,42.79,6.0312,0.046,-0.041,0.005,67.0,61.0,62.0,12.2,1504.6,124.3,-0.9,0.8,1990.546,13.27,0.061,131.7
09,2022-02-09T20:00:00,2000.0,42.79,6.0312,0.035,-0.052,0.0,70.0,62.0,66.0,12.2,1504.6,127.4,-0.7,1.0,1990.531,13.27,0.062,146.1
09,2022-02-09T20:30:00,2000.0,42.79,6.0312,0.019,-0.058,-0.039,68.0,66.0,67.0,12.2,1504.6,129.4,-0.9,1.0,1990.517,13.27,0.061,161.9
09,2022-02-09T21:00:00,2000.0,42.79,6.0312,0.018,-0.042,-0.004,72.0,66.0,68.0,12.2,1504.6,123.9,-1.0,0.9,1990.569,13.27,0.045,156.8
